Forside
METAR-TAF:

METAR-TAF

Lufthavne :

Dodge County Airport

Juneau, Wisconsin, USA

Breddekreds: 43-25-36N, længdekreds: 088-42-12W, højde: 285 m

Aktuelle vejr

Denne rapport blev lavet for 30 minutter siden, kl. 02:35 UTC
Vind 3 kt fra østsydøst
Temperatur 22°C
Fugtighed 78%
Tryk 1013 hPa
Sigt: 16.1 km
skyfri

METAR: KUNU 250235Z AUTO 12003KT 10SM CLR 22/18 A2992 RMK AO2 T02170184

Tid: 22:05 (03:05 UTC)


TAF: fraværende

Vejrobservationer og prognoser fra mere end 4000 lufthavne (METAR og TAF).

De gule og røde prikker repræsenterer de meteorologiske stationer.

Flyt musen over at se navnet på stationen.

Så klik over at se vejr observationer og prognoser.

At skifte det kort: Klik på de grønne knapper med et sort kors for at zoome ind; på den grønne knap med en bindestreg for at zoome ud; eller på de grønne pile for tilstødende kort.


METAR-TAF: